Other Public Products
Issued by NWS Charleston, SC

Current Version | Previous Version | Graphics & Text | Print | Product List | Glossary On
Versions: 1 2 3 4 5 6 7 8 9 10 11 12 13 14 15 16 17 18 19 20 21 22 23 24 25 26 27 28 29 30 31 32 33 34 35 36 37 38 39 40 41 42 43 44 45 46 47 48 49 50
828 FPUS82 KCHS 091327 OPUCHS TEST...KCHS/KSAV Gateway Observations...TEST National Weather Service Charleston SC 800 AM EST FRI DEC 09 2016 NOTE: "fair" indicates few or no clouds below 12,000 feet with no significant weather and/or obstructions to visibility. SCZ050-WAZ558-NCZ071-TXZ119-213-PAZ071-DCZ001-FLZ074-172-MI076- NYZ176-178-MAZ016-IL014-TNZ027-NJZ106-GAZ044-MD014-091400- ...Gateway Observations for Charleston International... CITY SKY/WX TMP DP RH WIND PRES REMARKS Chas Airport PTCLDY 40 22 48 N10 30.38R WCI 33 Seattle FLURRIES 33 29 85 E13 29.95F WCI 24 Charlotte CLEAR 30 15 53 N5 30.39R WCI 25 Dallas DFW CLOUDY 30 17 58 NE7 30.64R WCI 23 Dallas Love CLOUDY 32 14 47 NE6 30.66R WCI 26 Philladelphia CLEAR 31 17 56 W15 30.20R WCI 20 Wash National CLEAR 31 14 49 W14 30.30R WCI 21 Baltimore PTCLDY 29 15 56 W17 30.26R WCI 17 Miami CLOUDY 69 64 84 N6 30.17R Detroit CLOUDY 27 23 85 W7 30.35R WCI 19 Newark PTCLDY 32 18 56 W9 30.10R WCI 24 Laguardia PTCLDY 34 19 54 W12 30.09R WCI 25 J F K PTCLDY 34 18 52 W16G24 30.10R WCI 24 Boston Logan PTCLDY 33 19 56 W14G23 29.93R WCI 23 Ft. Lauderdale CLOUDY 71 64 78 N8 30.16R Chicago O`Hare FLURRIES 23 17 78 W10 30.48R WCI 12 Chicago Midway FLURRIES 23 15 71 W10 30.49R WCI 12 Houston Bush CLOUDY 38 25 59 N12 30.59R WCI 30 Houston Hobby MOCLDY 39 26 59 N12 30.57S WCI 32 Nashville CLOUDY 26 14 60 N8 30.59R WCI 18 Atlanta PTCLDY 28 17 63 NW10 30.44R WCI 19 $$ GAZ044-118-TXZ119-213-NCZ071-DCZ001-MDZ014-506-PAZ021-071-NJZ106- NYZ176-178-MAZ106-OHZ011-021-055-MIZ076-KYZ091-ILZ014-INZ047- MNZ060-091400- ...Gateway Observations for Savannah International... CITY SKY/WX TMP DP RH WIND PRES REMARKS Savannah Arpt PTCLDY 39 27 62 N7 30.40R WCI 34 Atlanta PTCLDY 28 17 63 NW10 30.44R WCI 19 Charlotte CLEAR 30 15 53 N5 30.39R WCI 25 Dallas DFW CLOUDY 30 17 58 NE7 30.64R WCI 23 Houston Bush CLOUDY 38 25 59 N12 30.59R WCI 30 Wash National CLEAR 31 14 49 W14 30.30R WCI 21 Wash Dulles CLEAR 29 13 51 NW17G28 30.28S WCI 17 Baltimore PTCLDY 29 15 56 W17 30.26R WCI 17 Philadelphia CLEAR 31 17 56 W15 30.20R WCI 20 Newark PTCLDY 32 18 56 W9 30.10R WCI 24 Laguardia PTCLDY 34 19 54 W12 30.09R WCI 25 J F K PTCLDY 34 18 52 W16G24 30.10R WCI 24 Boston PTCLDY 33 19 56 W14G23 29.93R WCI 23 Pittsburg CLOUDY 24 17 74 W9 30.31R WCI 14 Akron FLURRIES 22 16 78 W12G20 30.33R WCI 10 Cleveland FLURRIES 25 18 74 W13 30.37R WCI 14 Cincinnati FLURRIES 21 13 71 W10 30.51R WCI 10 Columbus N/A 21 15 79 SW8 30.47R WCI 11 Detroit CLOUDY 27 23 85 W7 30.35R WCI 19 Chicago O`Hare FLURRIES 23 17 78 W10 30.48R WCI 12 Minneapolis CLOUDY 15 9 76 W7 30.54S WCI 5 Indianapolis FLURRIES 20 15 81 W13 30.51S WCI 7 $$

USA.gov is the U.S. government's official web portal to all federal, state and local government web resources and services.